• In Denmark
  • List of Countries
  • For 7 days
  • Water Temperature
  • Satellite Maps
  • Weather Map
  • Weather Widgets
  • user-avatar
    Login

    Hourly Weather Imphal

    Today, 23 January, Tuesday

    Time Temperature Precipitation Wind Pressure Humidity
    00:00 +13°C° 0 mm 1 mps 691 mmHg 91%
    01:00 +13°C° 0 mm 1 mps 690 mmHg 92%
    02:00 +13°C° 0 mm 1 mps 690 mmHg 92%
    03:00 +12°C° 0 mm 1 mps 690 mmHg 92%
    04:00 +12°C° 0 mm 1 mps 690 mmHg 92%
    05:00 +12°C° 0 mm 1 mps 690 mmHg 92%
    06:00 +12°C° 0 mm 1 mps 691 mmHg 90%
    07:00 +13°C° 0 mm 0 mps 691 mmHg 81%
    08:00 +16°C° 0 mm 0 mps 692 mmHg 71%
    09:00 +19°C° 0 mm 0 mps 693 mmHg 61%
    10:00 +22°C° 0 mm 1 mps 693 mmHg 54%
    11:00 +24°C° 0 mm 1 mps 692 mmHg 47%
    12:00 +26°C° 0 mm 1 mps 692 mmHg 39%
    13:00 +26°C° 0 mm 1 mps 691 mmHg 40%
    14:00 +26°C° 0 mm 1 mps 691 mmHg 40%
    15:00 +25°C° 0 mm 1 mps 690 mmHg 41%
    16:00 +23°C° 0 mm 1 mps 690 mmHg 53%
    17:00 +18°C° 0 mm 0 mps 689 mmHg 65%
    18:00 +15°C° 0 mm 0 mps 689 mmHg 77%
    19:00 +14°C° 0 mm 0 mps 690 mmHg 79%
    20:00 +13°C° 0 mm 0 mps 690 mmHg 81%
    21:00 +14°C° 0 mm 1 mps 690 mmHg 83%
    22:00 +13°C° 0 mm 1 mps 690 mmHg 83%
    23:00 +13°C° 0 mm 1 mps 690 mmHg 83%

    Tomorrow, 24 January, Wednesday

    Time Temperature Precipitation Wind Pressure Humidity
    00:00 +13°C° 0 mm 1 mps 691 mmHg 83%
    01:00 +12°C° 0 mm 1 mps 690 mmHg 82%
    02:00 +12°C° 0 mm 1 mps 690 mmHg 82%
    03:00 +12°C° 0 mm 1 mps 690 mmHg 81%
    04:00 +11°C° 0 mm 1 mps 690 mmHg 81%
    05:00 +11°C° 0 mm 1 mps 690 mmHg 80%
    06:00 +11°C° 0 mm 1 mps 690 mmHg 80%
    07:00 +13°C° 0 mm 0 mps 690 mmHg 69%
    08:00 +16°C° 0 mm 0 mps 691 mmHg 59%
    09:00 +19°C° 0 mm 0 mps 692 mmHg 49%
    10:00 +21°C° 0 mm 0 mps 692 mmHg 44%
    11:00 +24°C° 0 mm 1 mps 692 mmHg 39%
    12:00 +26°C° 0 mm 1 mps 691 mmHg 34%
    13:00 +25°C° 0 mm 1 mps 691 mmHg 34%
    14:00 +25°C° 0 mm 1 mps 690 mmHg 34%
    15:00 +25°C° 0 mm 1 mps 689 mmHg 34%
    16:00 +22°C° 0 mm 1 mps 688 mmHg 46%
    17:00 +19°C° 0 mm 1 mps 688 mmHg 58%
    18:00 +14°C° 0 mm 0 mps 688 mmHg 69%
    19:00 +13°C° 0 mm 0 mps 688 mmHg 71%
    20:00 +14°C° 0 mm 1 mps 688 mmHg 72%
    21:00 +13°C° 0 mm 1 mps 689 mmHg 74%
    22:00 +13°C° 0 mm 1 mps 689 mmHg 73%
    23:00 +12°C° 0 mm 1 mps 689 mmHg 72%

    Day after tomorrow, 25 January, Thursday

    Time Temperature Precipitation Wind Pressure Humidity
    00:00 +12°C° 0 mm 1 mps 689 mmHg 71%
    01:00 +12°C° 0 mm 1 mps 689 mmHg 71%
    02:00 +11°C° 0 mm 1 mps 689 mmHg 71%
    03:00 +11°C° 0 mm 1 mps 689 mmHg 71%
    04:00 +11°C° 0 mm 1 mps 689 mmHg 71%
    05:00 +11°C° 0 mm 1 mps 689 mmHg 71%
    06:00 +11°C° 0 mm 1 mps 689 mmHg 71%
    07:00 +14°C° 0 mm 1 mps 690 mmHg 63%
    08:00 +18°C° 0 mm 1 mps 691 mmHg 55%
    09:00 +19°C° 0 mm 0 mps 692 mmHg 46%
    10:00 +22°C° 0 mm 1 mps 692 mmHg 42%
    11:00 +23°C° 0 mm 1 mps 692 mmHg 37%
    12:00 +25°C° 0 mm 1 mps 692 mmHg 33%
    13:00 +25°C° 0 mm 2 mps 691 mmHg 33%
    14:00 +25°C° 0 mm 2 mps 690 mmHg 34%
    15:00 +24°C° 0 mm 2 mps 690 mmHg 34%
    16:00 +22°C° 0 mm 1 mps 689 mmHg 44%
    17:00 +19°C° 0 mm 1 mps 689 mmHg 54%
    18:00 +14°C° 0 mm 0 mps 688 mmHg 64%
    19:00 +13°C° 0 mm 0 mps 689 mmHg 65%
    20:00 +13°C° 0 mm 0 mps 689 mmHg 67%
    21:00 +13°C° 0 mm 1 mps 690 mmHg 69%
    22:00 +13°C° 0 mm 1 mps 690 mmHg 69%
    23:00 +12°C° 0 mm 1 mps 690 mmHg 69%

    26 January, Friday

    Time Temperature Precipitation Wind Pressure Humidity
    00:00 +12°C° 0 mm 1 mps 690 mmHg 69%
    01:00 +12°C° 0 mm 1 mps 690 mmHg 69%
    02:00 +12°C° 0 mm 1 mps 689 mmHg 69%
    03:00 +11°C° 0 mm 1 mps 689 mmHg 68%
    04:00 +11°C° 0 mm 1 mps 689 mmHg 69%
    05:00 +11°C° 0 mm 1 mps 690 mmHg 70%
    06:00 +11°C° 0 mm 1 mps 690 mmHg 70%
    07:00 +13°C° 0 mm 0 mps 691 mmHg 63%
    08:00 +16°C° 0 mm 0 mps 692 mmHg 55%
    09:00 +19°C° 0 mm 0 mps 693 mmHg 47%
    10:00 +22°C° 0 mm 1 mps 693 mmHg 43%
    11:00 +24°C° 0 mm 1 mps 692 mmHg 38%
    12:00 +25°C° 0 mm 1 mps 692 mmHg 34%
    13:00 +25°C° 0 mm 1 mps 691 mmHg 33%
    14:00 +25°C° 0 mm 2 mps 690 mmHg 33%
    15:00 +25°C° 0 mm 2 mps 690 mmHg 32%
    16:00 +22°C° 0 mm 1 mps 689 mmHg 42%
    17:00 +19°C° 0 mm 1 mps 689 mmHg 53%
    18:00 +14°C° 0 mm 0 mps 689 mmHg 63%
    19:00 +14°C° 0 mm 1 mps 689 mmHg 64%
    20:00 +13°C° 0 mm 1 mps 689 mmHg 66%
    21:00 +12°C° 0 mm 1 mps 690 mmHg 67%
    22:00 +12°C° 0 mm 1 mps 690 mmHg 66%
    23:00 +11°C° 0 mm 1 mps 690 mmHg 64%

    27 January, Saturday

    Time Temperature Precipitation Wind Pressure Humidity
    00:00 +11°C° 0 mm 1 mps 689 mmHg 63%
    01:00 +11°C° 0 mm 1 mps 689 mmHg 61%
    02:00 +10°C° 0 mm 1 mps 689 mmHg 60%
    03:00 +10°C° 0 mm 1 mps 689 mmHg 58%
    04:00 +10°C° 0 mm 1 mps 689 mmHg 58%
    05:00 +10°C° 0 mm 1 mps 689 mmHg 58%
    06:00 +9°C° 0 mm 1 mps 689 mmHg 58%
    07:00 +12°C° 0 mm 1 mps 690 mmHg 51%
    08:00 +15°C° 0 mm 1 mps 691 mmHg 45%
    09:00 +17°C° 0 mm 0 mps 692 mmHg 39%
    10:00 +21°C° 0 mm 1 mps 692 mmHg 34%
    11:00 +22°C° 0 mm 1 mps 692 mmHg 30%
    12:00 +24°C° 0 mm 2 mps 691 mmHg 25%
    13:00 +23°C° 0 mm 2 mps 690 mmHg 26%
    14:00 +23°C° 0 mm 2 mps 690 mmHg 26%
    15:00 +22°C° 0 mm 3 mps 689 mmHg 26%
    16:00 +19°C° 0 mm 2 mps 688 mmHg 35%
    17:00 +16°C° 0 mm 1 mps 688 mmHg 43%
    18:00 +13°C° 0 mm 1 mps 688 mmHg 52%
    19:00 +12°C° 0 mm 1 mps 688 mmHg 54%
    20:00 +12°C° 0 mm 1 mps 689 mmHg 56%
    21:00 +11°C° 0 mm 1 mps 689 mmHg 58%
    22:00 +10°C° 0 mm 1 mps 689 mmHg 59%
    23:00 +10°C° 0 mm 1 mps 690 mmHg 60%

    28 January, Sunday

    Time Temperature Precipitation Wind Pressure Humidity
    00:00 +10°C° 0 mm 1 mps 690 mmHg 61%
    01:00 +10°C° 0 mm 1 mps 689 mmHg 63%
    02:00 +9°C° 0 mm 1 mps 689 mmHg 65%
    03:00 +9°C° 0 mm 1 mps 689 mmHg 66%
    04:00 +9°C° 0 mm 1 mps 689 mmHg 68%
    05:00 +9°C° 0 mm 1 mps 690 mmHg 69%
    06:00 +8°C° 0 mm 1 mps 690 mmHg 70%
    07:00 +11°C° 0 mm 1 mps 691 mmHg 61%
    08:00 +14°C° 0 mm 1 mps 692 mmHg 51%
    09:00 +18°C° 0 mm 1 mps 693 mmHg 41%
    10:00 +20°C° 0 mm 1 mps 693 mmHg 35%
    11:00 +22°C° 0 mm 1 mps 693 mmHg 29%
    12:00 +23°C° 0 mm 2 mps 692 mmHg 23%
    13:00 +23°C° 0 mm 2 mps 692 mmHg 23%
    14:00 +23°C° 0 mm 2 mps 691 mmHg 24%
    15:00 +23°C° 0 mm 2 mps 690 mmHg 24%
    16:00 +19°C° 0 mm 2 mps 690 mmHg 33%
    17:00 +16°C° 0 mm 1 mps 690 mmHg 41%
    18:00 +13°C° 0 mm 1 mps 689 mmHg 50%
    19:00 +12°C° 0 mm 1 mps 690 mmHg 52%
    20:00 +11°C° 0 mm 1 mps 690 mmHg 54%
    21:00 +10°C° 0 mm 1 mps 691 mmHg 56%
    22:00 +10°C° 0 mm 1 mps 691 mmHg 57%
    23:00 +9°C° 0 mm 1 mps 691 mmHg 58%
    Show more